Location: ???? ???
(30.5005°N, 60.5936°E)
Time: 11:40:37
(UTC+00:00)

Iridium 4 Rocket - Pass Details

Date: 07 June 2020
Orbit: 585 x 904 km, 86.9° (Epoch: 06 July)

Event Time Altitude Azimuth Distance (km) Brightness Sun altitude
Rises 00:13:46 0° 189° (S) 3,033 6.2 -8.5°
Reaches altitude 10° 00:15:58 10° 193° (SSW) 2,167 5.4 -8.1°
Maximum altitude 00:20:44 59° 273° (W) 868 3.6 -7.2°
Drops below altitude 10° 00:26:00 10° 353° (N) 2,388 6.4 -6.3°
Sets 00:28:32 0° 357° (N) 3,371 7.2 -5.8°
